Redmond, OR

4:27 AM PST on February 20, 2018 (GMT -0800)
Roberts Field Airport

Weather History for KRDM - March, 2013

Change the Weather History Date:

Sunday, March 10, 2013

  Actual Average Record
Temperature  
Mean Temperature 40 °F 39 °F  
Max Temperature 61 °F 53 °F 71 °F (2015)
Min Temperature 18 °F 25 °F 10 °F (2006)
Degree Days  
Heating Degree Days 25 26  
Month to date heating degree days 278 269  
Since 1 July heating degree days 4745 4942  
Cooling Degree Days 0 0  
Month to date cooling degree days 0 0  
Year to date cooling degree days 0 0  
Moisture  
Dew Point 25 °F    
Average Humidity 51    
Maximum Humidity 84    
Minimum Humidity 17    
Precipitation  
Precipitation 0.00 in 0.02 in 0.16 in (2006)
Month to date precipitation 0.06 0.19  
Year to date precipitation 0.48 1.81  
Sea Level Pressure  
Sea Level Pressure 30.41 in    
Wind  
Wind Speed 6 mph (WNW)    
Max Wind Speed 21 mph    
Max Gust Speed 26 mph    
Visibility 10 miles    
Events      
T = Trace of Precipitation, MM = Missing Value Source: NWS Daily Summary

Daily Weather History Graph

Daily Weather History Graph

Search for Another Location

Airport or City:

Trip Planner

Search our weather history database for the weather conditions in past years. The results will help you decide how hot, cold, wet, or windy it might be!

Date:

Astronomy

Mar. 10, 2013 Rise Set
Actual Time 7:25 AM PDT 7:04 PM PDT
Civil Twilight 6:56 AM PDT 7:33 PM PDT
Nautical Twilight 6:22 AM PDT 8:07 PM PDT
Astronomical Twilight 5:48 AM PDT 8:41 PM PDT
Moon 6:29 AM PDT (3/10) 6:18 PM PDT (3/10)
Length of Visible Light 12h 37m
Length of Day
11h 39m
Waning Crescent, 1% of the Moon is Illuminated
Mar 10
Waning Crescent
Mar 11
New
Mar 19
First Quarter
Mar 27
Full
Apr 2
Last Quarter

Hourly Weather History & Observations

Time (PDT) Temp. Windchill Dew Point Humidity Pressure Visibility Wind Dir Wind Speed Gust Speed Precip Events Conditions
1:56 AM 26.1 °F - 18.0 °F 71% 30.46 in 10.0 mi Calm Calm - N/A   Clear
3:56 AM 19.9 °F - 15.1 °F 81% 30.47 in 10.0 mi Calm Calm - N/A   Clear
5:56 AM 19.9 °F 12.1 °F 15.1 °F 81% 30.48 in 10.0 mi SE 5.8 mph - N/A   Clear
6:56 AM 21.9 °F 15.7 °F 16.0 °F 78% 30.49 in 10.0 mi ESE 4.6 mph - N/A   Clear
7:56 AM 24.1 °F 19.7 °F 17.1 °F 75% 30.50 in 10.0 mi ESE 3.5 mph - N/A   Clear
8:56 AM 32.0 °F 28.7 °F 21.0 °F 64% 30.50 in 10.0 mi ESE 3.5 mph - N/A   Clear
9:56 AM 39.9 °F 36.7 °F 21.0 °F 47% 30.48 in 10.0 mi ESE 4.6 mph - N/A   Clear
10:56 AM 46.0 °F 43.9 °F 19.9 °F 35% 30.46 in 10.0 mi Variable 4.6 mph - N/A   Mostly Cloudy
11:56 AM 50.0 °F - 18.0 °F 28% 30.43 in 10.0 mi SSE 4.6 mph - N/A   Overcast
12:56 PM 57.0 °F - 12.9 °F 18% 30.40 in 10.0 mi Calm Calm - N/A   Overcast
1:56 PM 57.9 °F - 18.0 °F 21% 30.36 in 10.0 mi WNW 9.2 mph - N/A   Mostly Cloudy
2:56 PM 60.1 °F - 27.0 °F 28% 30.35 in 10.0 mi Variable 6.9 mph - N/A   Overcast
3:56 PM 60.1 °F - 28.9 °F 31% 30.36 in 10.0 mi WNW 15.0 mph - N/A   Mostly Cloudy
4:56 PM 55.9 °F - 30.0 °F 37% 30.35 in 10.0 mi NW 18.4 mph 24.2 mph N/A   Clear
5:56 PM 53.1 °F - 32.0 °F 45% 30.37 in 10.0 mi WNW 16.1 mph - N/A   Overcast
6:56 PM 48.9 °F - 34.0 °F 56% 30.39 in 10.0 mi NNW 10.4 mph - N/A   Overcast
7:56 PM 48.9 °F - 36.0 °F 61% 30.39 in 10.0 mi NW 11.5 mph - N/A   Overcast
8:56 PM 48.0 °F - 37.0 °F 66% 30.39 in 10.0 mi North 4.6 mph - N/A   Overcast
9:56 PM 48.0 °F - 37.0 °F 66% 30.36 in 10.0 mi WNW 10.4 mph - N/A   Overcast
10:56 PM 46.0 °F 43.9 °F 36.0 °F 68% 30.37 in 10.0 mi West 4.6 mph - N/A   Mostly Cloudy
11:56 PM 42.1 °F 38.4 °F 35.1 °F 76% 30.36 in 10.0 mi SSE 5.8 mph - N/A   Mostly Cloudy
12:56 AM 41.0 °F 39.0 °F 34.0 °F 76% 30.36 in 10.0 mi SW 3.5 mph - N/A   Overcast